User: anonymous   Login
Location: Caltech
(34.1382°N, 118.1253°W)
Time: 13:32:32
(UTC-07:00)
Language:

Cosmos 1943 Rocket - Orbit

View from above orbital plane
View from above orbital plane
View from above satellite
View from above satellite

Ground track
Ground track

The orbit data is extracted from the following two-line orbital elements,

1 19120U 88039B   18113.92880791 +.00000079 +00000-0 +60450-4 0  9994
2 19120 071.0170 028.3356 0019853 069.7722 290.5536 14.19182948550206
Epoch (UTC): 23 April 2018 22:17:29
Eccentricity: 0.0019853
inclination: 71.0170°
perigee height: 814 km
apogee height: 842 km
right ascension of ascending node: 28.3356°
argument of perigee: 69.7722°
revolutions per day: 14.19182948
mean anomaly at epoch: 290.5536°
orbit number at epoch: 55020

The dashed part of the orbit path shows where the satellite is in the earth's shadow,  

DLR